#timestamp,LO_Frequency,Hit,StdDev 
1534010415.9,286046999.9,N
1534010435.7,286047000.2,N
1534010455.6,286047001.0,N
1534010475.4,286046998.1,N
1534010495.2,286047001.0,N
1534010515.1,286046999.9,N
1534010516.0,286046999.9,N
1534010535.8,286047000.7,N
1534010555.7,286047010.7,Y
1534010575.5,286047013.6,P
1534010595.3,286047019.6,N
1534010615.2,286047031.6,P
1534010635.0,286047030.4,N
1534010635.9,286047030.4,N
1534010655.7,286047031.1,N
1534010675.6,286047031.1,N
1534010695.4,286047026.9,N
1534010715.3,286047028.9,N
1534010735.1,286047030.2,Y
1534010736.0,286047030.2,P
1534010755.8,286047008.8,P
1534010775.7,286047008.8,N
1534010795.5,286047005.0,N
1534010815.4,286046999.7,N
1534010835.2,286046997.0,N
1534010855.0,286046993.8,N
1534010855.9,286046993.8,N
1534010875.8,286046990.6,N
1534010895.6,286046992.8,N
1534010915.5,286046990.5,N
1534010935.3,286046991.3,N
1534010955.1,286046992.5,N
1534010975.9,286046991.5,N
1534010995.7,286046991.2,N
1534011015.5,286046987.6,N
1534011035.4,286046986.0,N
1534011055.2,286046984.4,N
1534011075.1,286046989.6,N
1534011076.0,286046989.6,N
1534011095.8,286046991.1,N
1534011115.6,286046991.4,N
1534011135.5,286046989.4,N
1534011155.3,286046990.2,N
1534011175.1,286046990.9,N
1534011195.9,286046990.4,N
1534011215.7,286046989.4,N
1534011235.6,286046987.3,N
1534011255.4,286046988.4,N
1534011275.2,286046986.1,N
1534011295.1,286046984.3,N
1534011296.0,286046984.3,N
1534011315.8,286046982.8,Y
1534011335.6,286046990.9,P
1534011355.5,286046988.9,P
1534011375.3,286046991.6,P
1534011395.2,286046990.0,Y
1534011415.9,286046999.5,P
1534011435.7,286046997.4,N
1534011455.6,286046997.1,N
1534011475.4,286046995.7,N
1534011495.2,286046995.8,N
1534011515.1,286046992.2,N
1534011516.0,286046992.2,N
1534011535.8,286046992.9,N
1534011555.7,286046992.4,N
1534011575.5,286046990.2,Y
1534011595.3,286046995.8,P
1534011615.2,286046996.2,P
1534011635.0,286046995.9,P
1534011635.9,286046995.9,Y
1534011655.8,286046999.0,P
1534011675.6,286046999.1,N
1534011695.4,286046999.6,N
1534011715.3,286046996.6,N
1534011735.1,286046999.2,N
1534011755.8,286046999.6,N
1534011775.7,286046996.6,N
1534011795.5,286046997.7,N
1534011815.4,286046997.7,N
1534011835.2,286046995.5,Y
1534011855.0,286046997.0,P
1534011855.9,286046997.0,P
1534011875.8,286046997.4,P
1534011895.6,286046997.0,Y
1534011915.4,286047000.7,P
1534011935.3,286047001.0,N
1534011955.1,286047000.9,N
1534011975.9,286047001.0,N
1534011995.7,286047001.1,N
1534012015.5,286046998.6,N
1534012035.4,286046998.1,N
1534012055.2,286046998.7,N
1534012075.0,286046998.4,N
1534012076.0,286046998.4,N
1534012095.8,286046996.9,N
1534012115.6,286046999.4,N
1534012135.5,286046996.7,N
1534012155.3,286046999.6,N
1534012175.2,286046999.5,N
1534012195.9,286046998.9,N
1534012215.7,286046999.1,N
1534012235.6,286046999.4,N
1534012255.4,286046998.9,N
1534012275.2,286046999.2,N
1534012295.1,286046998.8,N
1534012296.0,286046998.8,N
1534012315.8,286046998.9,N
1534012335.7,286047001.1,N
1534012355.5,286046998.4,N
1534012375.3,286046999.1,N
1534012395.2,286046999.3,N
1534012415.0,286046998.4,N
1534012415.9,286046998.4,N
1534012435.8,286046999.4,N
1534012455.6,286046998.1,N
1534012475.4,286046998.1,N
1534012495.3,286046998.5,N
1534012515.1,286046998.5,N
1534012535.8,286046998.7,N
1534012555.7,286046998.6,N
1534012575.5,286046999.2,N
1534012595.4,286046999.0,N
1534012615.2,286046998.7,N
1534012635.0,286046998.5,N
1534012635.9,286046998.5,N
1534012655.8,286047001.0,N
1534012675.6,286046998.1,N
1534012695.4,286047001.0,N
1534012715.3,286047000.6,N
1534012735.1,286046998.3,N
1534012755.9,286046998.5,N
1534012775.7,286047000.7,N
1534012795.5,286047000.5,N
1534012815.4,286047001.0,N
1534012835.2,286046998.8,N
1534012855.0,286047000.9,N
1534012855.9,286047000.9,N
1534012875.8,286047000.2,N
1534012895.6,286047000.4,N
1534012915.5,286047000.3,N
1534012935.3,286047000.7,N
1534012955.1,286047000.7,N
1534012975.9,286046998.4,N
1534012995.7,286046998.7,N
1534013015.6,286047001.2,N
1534013035.4,286046998.2,N
1534013055.2,286047000.4,N
1534013075.1,286047000.4,N
1534013076.0,286047000.4,N
1534013095.8,286047000.9,N
1534013115.6,286047001.0,N
1534013135.5,286047001.1,N
1534013155.3,286047001.2,N
1534013175.2,286047000.4,N
1534013195.9,286047000.3,N
1534013215.7,286047000.9,N
1534013235.6,286047002.3,N
1534013255.4,286047002.3,N
1534013275.2,286047000.2,N
1534013295.1,286047002.8,N
1534013296.0,286047002.8,N
1534013315.8,286047001.9,N
1534013335.7,286047001.8,N
1534013355.5,286047002.5,N
1534013375.3,286047002.6,N
1534013395.2,286047002.5,N
1534013415.9,286047001.9,N
1534013435.7,286047001.9,N
1534013455.6,286047002.6,N
1534013475.4,286047002.3,N
1534013495.3,286047002.0,N
1534013515.1,286047002.5,N
1534013516.0,286047002.5,N
1534013535.8,286047002.8,N
1534013555.7,286047002.3,N
1534013575.5,286047001.3,N
1534013595.3,286047001.9,N
1534013615.2,286047002.7,Y
1534013635.0,286046999.9,P
1534013635.9,286046999.9,N
1534013655.8,286047000.8,N
1534013675.6,286047000.9,N
1534013695.4,286047000.4,N
1534013715.3,286047002.5,Y
1534013735.1,286047000.5,P
1534013755.8,286047000.4,P
1534013775.7,286047000.2,N
1534013795.5,286046999.9,N
1534013815.4,286047000.7,N
1534013835.2,286047000.6,N
1534013855.0,286047000.1,N
1534013855.9,286047000.1,N
1534013875.8,286047000.2,N
1534013895.6,286046999.8,N
1534013915.4,286047000.1,N
1534013935.3,286047000.2,N
1534013955.1,286047000.1,N
1534013975.9,286047000.2,N
1534013995.7,286046999.7,N
